Вернуться в каталог

STARLINK-37513

АктивенСвязьVLEO
NORAD 69456·PAYLOAD·🇺🇸 United States

Запущен Jun 8, 2026 с Cape Canaveral Space Force Station

Loading…

Ближайшие Пролёты (ближайшие 24 часа)

TLE

СвежийSource: CelesTrak SupGP

Эпоха: Sep 15, 2026, 03:32 UTC

1 69456C 26127P   26258.14770833 -.00044544  00000+0 -13161-2 0  2588
2 69456  53.1579 190.5643 0001364  85.7477 236.0601 15.34411479    10

Отслеживайте STARLINK-37513 в реальном времени с AllMySat

Download on the App Store